Regional Weather Roundup
Issued by NWS Kansas City/Pleasant Hill, MO

Home | Current Version | Previous Version | Text Only | Print | Product List | Glossary On
Versions: 1 2 3 4 5 6 7 8 9 10 11 12 13 14 15 16 17 18 19 20 21 22 23 24 25 26 27
000
ASUS43 KEAX 270810
RWREAX

WEATHER ROUNDUP FOR EASTERN KANSAS AND NORTHWEST MISSOURI
NATIONAL WEATHER SERVICE KANSAS CITY/PLEASANT HILL MO
300 AM CDT WED JUL 27 2016

KSZ040-057-103>105-MOZ028-029-037-043-270900-
...KANSAS CITY METROPOLITAN AREA...

CITY           SKY/WX    TMP DP  RH WIND       PRES   REMARKS
K.C. INTL      CLEAR     71  66  84 NE6       30.00R
K.C. DOWNTOWN  CLEAR     74  67  78 NE6       29.98S
LEES SUMMIT    CLEAR     73  68  84 E6        29.99F
OLATHE - IXD   MOCLDY    74  68  81 E5        30.00S
OLATHE - OJC   NOT AVBL
LAWRENCE       CLEAR     65  63  93 NW3       29.98S

$$

MOZ001>008-011>017-020>025-030>033-038>040-044>046-053-054-270900-
...NORTHERN AND CENTRAL MISSOURI...

CITY           SKY/WX    TMP DP  RH WIND       PRES   REMARKS
ST. JOSEPH     CLEAR     67  64  90 CALM      30.01R
MOSBY          SUNNY     66  64  94 CALM      29.99R
WHITEMAN AFB   MOCLDY    72  72 100 NE2       29.97S
CLINTON        CLEAR     72  72 100 CALM      29.98F
SEDALIA        CLEAR     73  70  90 CALM      29.99S
WARSAW         NOT AVBL
CHILLICOTHE      N/A     68  66  93 NW3       30.01S
KIRKSVILLE     CLEAR     64  63  96 CALM      30.01S

$$

MOZ041-047>049-056>058-063>065-088>090-097-270900-
...EASTERN AND SOUTHERN MISSOURI...

CITY           SKY/WX    TMP DP  RH WIND       PRES   REMARKS
ST. LOUIS INTL MOCLDY    78  74  87 E5        29.97F
SPIRIT OF STL  PTCLDY    75  74  96 CALM      29.96S
COLUMBIA       CLEAR     73  72  96 CALM      29.98S
JEFFERSON CITY PTCLDY    73  72  96 CALM      29.97S
ROLLA          FOG       70  70 100 CALM      29.98S VSB 1
OSAGE BEACH    PTCLDY    71  71 100 CALM      29.99S FOG
SPRINGFIELD    MOCLDY    73  70  90 CALM      29.99R
BRANSON        FOG       73  73 100 CALM      30.00S VSB<1/4
JOPLIN         FOG       71  70  96 CALM      29.96F VSB 1/2
WEST PLAINS    CLEAR     72  69  90 NE3       30.01S

$$

IAZ060-094-KSZ022-034>040-054-083-096-NEZ052-066-093-270900-
...KANSAS...SOUTHEAST NEBRASKA AND IOWA...

CITY           SKY/WX    TMP DP  RH WIND       PRES   REMARKS
TOPEKA         CLEAR     68  65  90 N3        29.99R
MANHATTAN      CLEAR     70  67  90 CALM      30.00S
EMPORIA        CLEAR     72  69  90 NE5       29.99R
CHANUTE        CLOUDY    73  71  93 E3        29.96F
WICHITA        CLEAR     76  71  85 E5        29.97F
OMAHA          MOCLDY    74  66  76 S6        30.01S
LINCOLN        MOCLDY    73  65  75 W6        30.05R
FALLS CITY     PTCLDY    68  67  96 CALM      30.00R
LAMONI         CLEAR     66  64  93 CALM      30.01S
DES MOINES     PTCLDY    73  65  75 S5        30.00S

$$





USA.gov is the U.S. government's official web portal to all federal, state and local government web resources and services.